Погода в Ладве-Ветке

Россия / Республика Карелия     61°21′33″N   34°27′04″E
темп.,
°C
ветер,
м/с
пор.,
м/с
влажн.,
%
обл.,
%
осадки,
мм/ч
давл.,
гПа
погр.,
м
10 мая, пн
пн1000:00+1зюз247226 0.0 102074
03:00+1юз25775 0.0 102296
06:00+3ююз297232 0.0 1023217
09:00+10ю51051100 0.0 1022738
12:00+13ююз6114387 0.0 10221882
15:00+8ю51370100 0.2 1022953
18:00+11ююз41264100 0.0 1022815
21:00+11ююз31377100 0.0 1023484
11 мая, вт
вт1100:00+11ююз41480100 0.0 1023447
03:00+10ююз41485100 0.0 1024440
06:00+11ююз41383100 0.0 1025506
09:00+14ююз41271100 0.0 1025563
12:00+19юз59515 0.0 10251130
15:00+21юз58435 0.0 10251510
18:00+20юз37505 0.0 10251279
21:00+14ююз237623 0.0 102640
12 мая, ср
ср1200:00+11ююз23823 0.0 102745
03:00+10ююз25895 0.0 102796
06:00+11ююз26820 0.0 1028154
09:00+17ю24550 0.0 1027476
12:00+21ю24370 0.0 10261096
15:00+22ю24330 0.0 10251417
18:00+22ююз14440 0.0 10241375
21:00+15в22710 0.0 102419
13 мая, чт
чт1300:00+13ююв11825 0.0 102411
03:00+12юв11885 0.0 102411
06:00+14вюв14863 0.0 1023117
09:00+19юв256381 0.0 1022521
12:00+22юв36506 0.0 10211455
15:00+21вюв375532 0.0 1019580
18:00+19ююв4968100 0.6 1018936
21:00+14ююз31095100 6.3 1018464
14 мая, пт
пт1400:00+14ююв2695100 2.3 1018231
03:00+12ю2598100 2.3 1018122
06:00+12ю13956 0.0 1018112
09:00+17ю237215 0.0 1018544
12:00+20ю2449100 0.0 10181746
15:00+20ююз2444100 0.0 10171867
18:00+20в335019 0.0 10151160
21:00+16всв2674100 0.0 1015175